| time (UTC) | temp F | wind direction | speed knots | gust knots | rain 1hr in | rain 24hr in | rain mn in | humidity % | barometer mb |
| 20260510095600 | 56 | 319 | 2.6 | 16.5 | 0.00 | 0.00 | 0.00 | 68 | 1018.0 |
| 20260510095058 | 57 | 87 | 7.8 | 16.5 | 0.00 | 0.00 | 0.00 | 63 | 1018.1 |
| 20260510094558 | 57 | 101 | 8.7 | 15.6 | 0.00 | 0.00 | 0.00 | 61 | 1018.1 |
| 20260510094057 | 58 | 115 | 8.7 | 16.5 | 0.00 | 0.00 | 0.00 | 62 | 1018.2 |
| 20260510093557 | 57 | 87 | 9.6 | 16.5 | 0.00 | 0.00 | 0.00 | 64 | 1018.2 |
| 20260510093100 | 56 | 151 | 8.7 | 16.5 | 0.00 | 0.00 | 0.00 | 65 | 1018.3 |
| 20260510092601 | 56 | 69 | 8.7 | 16.5 | 0.00 | 0.00 | 0.00 | 65 | 1018.3 |
| 20260510092102 | 55 | 48 | 7.8 | 18.2 | 0.00 | 0.00 | 0.00 | 67 | 1018.3 |
| 20260510091601 | 55 | 46 | 9.6 | 18.2 | 0.00 | 0.00 | 0.00 | 67 | 1018.3 |
| 20260510091057 | 54 | 63 | 8.7 | 15.6 | 0.00 | 0.00 | 0.00 | 68 | 1018.3 |
| 20260510090558 | 54 | 48 | 8.7 | 15.6 | 0.00 | 0.00 | 0.00 | 68 | 1018.5 |
| 20260510090058 | 55 | 103 | 7.8 | 13.9 | 0.00 | 0.00 | 0.00 | 70 | 1018.4 |
| 20260510085559 | 55 | 26 | 4.3 | 11.3 | 0.00 | 0.00 | 0.00 | 67 | 1018.5 |
| 20260510085059 | 55 | 32 | 5.2 | 12.2 | 0.00 | 0.00 | 0.00 | 66 | 1018.5 |
| 20260510084600 | 55 | 73 | 7.0 | 14.8 | 0.00 | 0.00 | 0.00 | 66 | 1018.5 |
| 20260510084058 | 55 | 62 | 8.7 | 17.4 | 0.00 | 0.00 | 0.00 | 64 | 1018.5 |
| 20260510083601 | 55 | 42 | 7.8 | 17.4 | 0.00 | 0.00 | 0.00 | 65 | 1018.6 |
| 20260510083102 | 55 | 75 | 6.1 | 17.4 | 0.00 | 0.00 | 0.00 | 66 | 1018.8 |
| 20260510082557 | 55 | 58 | 4.3 | 10.4 | 0.00 | 0.00 | 0.00 | 68 | 1018.6 |
| 20260510082057 | 55 | 26 | 5.2 | 13.0 | 0.00 | 0.00 | 0.00 | 68 | 1018.6 |
| 20260510081559 | 56 | 75 | 5.2 | 13.0 | 0.00 | 0.00 | 0.00 | 69 | 1018.6 |
| 20260510081058 | 55 | 127 | 7.0 | 13.0 | 0.00 | 0.00 | 0.00 | 67 | 1018.6 |
| 20260510080600 | 54 | 69 | 6.1 | 19.1 | 0.00 | 0.00 | 0.00 | 67 | 1018.6 |
| 20260510080104 | 54 | 130 | 6.1 | 19.1 | 0.00 | 0.00 | 0.00 | 67 | 1018.5 |
| 20260510075601 | 54 | 50 | 7.8 | 15.6 | 0.00 | 0.00 | 0.00 | 68 | 1018.5 |
| 20260510075058 | 54 | 37 | 8.7 | 15.6 | 0.00 | 0.00 | 0.00 | 67 | 1018.5 |
| 20260510074559 | 54 | 67 | 4.3 | 14.8 | 0.00 | 0.00 | 0.00 | 69 | 1018.5 |
| 20260510074058 | 54 | 57 | 4.3 | 14.8 | 0.00 | 0.00 | 0.00 | 68 | 1018.4 |
| 20260510073559 | 54 | 28 | 5.2 | 16.5 | 0.00 | 0.00 | 0.00 | 70 | 1018.3 |
| 20260510073116 | 53 | 99 | 7.0 | 16.5 | 0.00 | 0.00 | 0.00 | 71 | 1018.3 |
| 20260510072558 | 53 | 54 | 7.8 | 17.4 | 0.00 | 0.00 | 0.00 | 70 | 1018.4 |
| 20260510072059 | 52 | 63 | 8.7 | 17.4 | 0.00 | 0.00 | 0.00 | 71 | 1018.4 |
| 20260510071558 | 52 | 72 | 7.0 | 16.5 | 0.00 | 0.00 | 0.00 | 71 | 1018.3 |
| 20260510071058 | 52 | 65 | 6.1 | 15.6 | 0.00 | 0.00 | 0.00 | 71 | 1018.3 |
| 20260510070557 | 53 | 78 | 7.8 | 14.8 | 0.00 | 0.00 | 0.00 | 71 | 1018.3 |
| 20260510070106 | 53 | 51 | 6.1 | 14.8 | 0.00 | 0.00 | 0.00 | 71 | 1018.3 |
| 20260510065559 | 53 | 82 | 5.2 | 13.0 | 0.00 | 0.00 | 0.00 | 71 | 1018.2 |
| 20260510065100 | 53 | 68 | 4.3 | 13.0 | 0.00 | 0.00 | 0.00 | 71 | 1018.2 |
| 20260510064636 | 52 | 76 | 7.0 | 12.2 | 0.00 | 0.00 | 0.00 | 71 | 1018.2 |
| 20260510064058 | 53 | 37 | 5.2 | 10.4 | 0.00 | 0.00 | 0.00 | 72 | 1018.3 |
| 20260510063558 | 53 | 78 | 5.2 | 13.9 | 0.00 | 0.00 | 0.00 | 71 | 1018.2 |
| 20260510063058 | 53 | 223 | 4.3 | 13.9 | 0.00 | 0.00 | 0.00 | 72 | 1018.2 |
| 20260510062558 | 53 | 82 | 5.2 | 13.9 | 0.00 | 0.00 | 0.00 | 72 | 1018.1 |
| 20260510062059 | 53 | 57 | 2.6 | 12.2 | 0.00 | 0.00 | 0.00 | 71 | 1018.2 |
| 20260510061557 | 53 | 128 | 0.9 | 13.0 | 0.00 | 0.00 | 0.00 | 73 | 1018.1 |
| 20260510061058 | 52 | 142 | 3.5 | 13.0 | 0.00 | 0.00 | 0.00 | 71 | 1018.1 |
| 20260510060602 | 52 | 126 | 3.5 | 12.2 | 0.00 | 0.00 | 0.00 | 72 | 1018.0 |
| 20260510060059 | 52 | 60 | 5.2 | 12.2 | 0.00 | 0.00 | 0.00 | 72 | 1018.2 |
| 20260510055558 | 52 | 91 | 1.7 | 9.6 | 0.00 | 0.00 | 0.00 | 73 | 1018.1 |
| 20260510055059 | 51 | 38 | 4.3 | 12.2 | 0.00 | 0.00 | 0.00 | 74 | 1018.1 |
| 20260510054604 | 51 | 141 | 3.5 | 12.2 | 0.00 | 0.00 | 0.00 | 75 | 1018.2 |
| 20260510054058 | 50 | 107 | 6.1 | 12.2 | 0.00 | 0.00 | 0.00 | 76 | 1018.1 |
| 20260510053559 | 50 | 209 | 2.6 | 7.8 | 0.00 | 0.00 | 0.00 | 77 | 1018.1 |
| 20260510053057 | 50 | 175 | 1.7 | 7.8 | 0.00 | 0.00 | 0.00 | 77 | 1018.1 |
| 20260510052558 | 50 | 131 | 2.6 | 7.8 | 0.00 | 0.00 | 0.00 | 78 | 1018.1 |
| 20260510052058 | 49 | 98 | 2.6 | 7.8 | 0.00 | 0.00 | 0.00 | 77 | 1018.2 |
| 20260510051605 | 49 | 105 | 1.7 | 4.3 | 0.00 | 0.00 | 0.00 | 78 | 1018.3 |
| 20260510051100 | 49 | 238 | 1.7 | 4.3 | 0.00 | 0.00 | 0.00 | 78 | 1018.2 |
| 20260510050558 | 49 | 110 | 0.9 | 4.3 | 0.00 | 0.00 | 0.00 | 78 | 1018.3 |
| 20260510045601 | 49 | 299 | 2.6 | 9.6 | 0.00 | 0.00 | 0.00 | 78 | 1018.1 |
| 20260510045058 | 49 | 59 | 3.5 | 9.6 | 0.00 | 0.00 | 0.00 | 78 | 1018.2 |
| 20260510044602 | 49 | 352 | 1.7 | 9.6 | 0.00 | 0.00 | 0.00 | 78 | 1018.3 |
| 20260510044058 | 49 | 49 | 1.7 | 7.0 | 0.00 | 0.00 | 0.00 | 78 | 1018.2 |
| 20260510043559 | 49 | 90 | 2.6 | 7.8 | 0.00 | 0.00 | 0.00 | 78 | 1018.2 |
| 20260510043057 | 49 | 33 | 2.6 | 10.4 | 0.00 | 0.00 | 0.00 | 78 | 1018.3 |
| 20260510042559 | 49 | 61 | 3.5 | 10.4 | 0.00 | 0.00 | 0.00 | 78 | 1018.4 |
| 20260510042057 | 49 | 90 | 3.5 | 8.7 | 0.00 | 0.00 | 0.00 | 78 | 1018.3 |
| 20260510041557 | 49 | 69 | 2.6 | 8.7 | 0.00 | 0.00 | 0.00 | 78 | 1018.3 |
| 20260510041058 | 49 | 179 | 3.5 | 10.4 | 0.00 | 0.00 | 0.00 | 78 | 1018.2 |
| 20260510040559 | 49 | 69 | 3.5 | 10.4 | 0.00 | 0.00 | 0.00 | 78 | 1018.3 |
| 20260510040100 | 49 | 63 | 1.7 | 7.0 | 0.00 | 0.00 | 0.00 | 79 | 1018.3 |
| 20260510035558 | 49 | 80 | 2.6 | 11.3 | 0.00 | 0.00 | 0.00 | 79 | 1018.3 |
| 20260510035057 | 49 | 126 | 4.3 | 11.3 | 0.00 | 0.00 | 0.00 | 79 | 1018.3 |
| 20260510034618 | 49 | 85 | 2.6 | 7.8 | 0.00 | 0.00 | 0.00 | 79 | 1018.2 |
| 20260510034058 | 49 | 74 | 2.6 | 11.3 | 0.00 | 0.00 | 0.00 | 78 | 1018.3 |
| 20260510033558 | 49 | 71 | 3.5 | 11.3 | 0.00 | 0.00 | 0.00 | 78 | 1018.4 |
| 20260510033100 | 49 | 71 | 2.6 | 7.8 | 0.00 | 0.00 | 0.00 | 79 | 1018.5 |
| 20260510032557 | 49 | 60 | 0.9 | 7.0 | 0.00 | 0.00 | 0.00 | 78 | 1018.4 |
| 20260510032057 | 49 | 77 | 2.6 | 7.8 | 0.00 | 0.00 | 0.00 | 78 | 1018.4 |
| 20260510031557 | 49 | 49 | 3.5 | 11.3 | 0.00 | 0.00 | 0.00 | 78 | 1018.4 |
| 20260510031056 | 49 | 84 | 3.5 | 11.3 | 0.00 | 0.00 | 0.00 | 79 | 1018.4 |
| 20260510030559 | 49 | 0 | 1.7 | 6.1 | 0.00 | 0.00 | 0.00 | 79 | 1018.4 |
| 20260510030109 | 49 | 57 | 1.7 | 6.1 | 0.00 | 0.00 | 0.00 | 79 | 1018.4 |
| 20260510025558 | 49 | 104 | 0.9 | 7.0 | 0.00 | 0.00 | 0.00 | 79 | 1018.4 |
| 20260510025058 | 50 | 80 | 2.6 | 7.0 | 0.00 | 0.00 | 0.00 | 79 | 1018.4 |
| 20260510024600 | 50 | 40 | 2.6 | 7.0 | 0.00 | 0.00 | 0.00 | 78 | 1018.3 |
| 20260510024058 | 50 | 93 | 1.7 | 8.7 | 0.00 | 0.00 | 0.00 | 78 | 1018.2 |
| 20260510023557 | 50 | 42 | 0.0 | 8.7 | 0.00 | 0.00 | 0.00 | 78 | 1018.3 |
| 20260510023058 | 50 | 44 | 1.7 | 8.7 | 0.00 | 0.00 | 0.00 | 78 | 1018.3 |
| 20260510022603 | 50 | 99 | 2.6 | 8.7 | 0.00 | 0.00 | 0.00 | 78 | 1018.2 |
| 20260510022057 | 50 | 59 | 3.5 | 10.4 | 0.00 | 0.00 | 0.00 | 78 | 1018.3 |
| 20260510021604 | 51 | 44 | 4.3 | 10.4 | 0.00 | 0.00 | 0.00 | 78 | 1018.3 |
| 20260510021058 | 51 | 66 | 2.6 | 9.6 | 0.00 | 0.00 | 0.00 | 78 | 1018.3 |
| 20260510020557 | 51 | 80 | 3.5 | 7.8 | 0.00 | 0.00 | 0.00 | 78 | 1018.4 |
| 20260510020056 | 51 | 42 | 4.3 | 7.8 | 0.00 | 0.00 | 0.00 | 78 | 1018.3 |
| 20260510015558 | 51 | 41 | 2.6 | 11.3 | 0.00 | 0.00 | 0.00 | 77 | 1018.4 |
| 20260510015056 | 51 | 59 | 5.2 | 11.3 | 0.00 | 0.00 | 0.00 | 77 | 1018.3 |
| 20260510014602 | 51 | 79 | 3.5 | 7.8 | 0.00 | 0.00 | 0.00 | 78 | 1018.3 |
| 20260510014058 | 51 | 66 | 2.6 | 7.0 | 0.00 | 0.00 | 0.00 | 78 | 1018.4 |
| 20260510013600 | 51 | 63 | 3.5 | 7.8 | 0.00 | 0.00 | 0.00 | 78 | 1018.4 |
| 20260510013126 | 51 | 98 | 2.6 | 7.8 | 0.00 | 0.00 | 0.00 | 79 | 1018.3 |
| 20260510012558 | 51 | 66 | 0.9 | 7.0 | 0.00 | 0.00 | 0.00 | 79 | 1018.4 |
| 20260510012057 | 51 | 115 | 0.0 | 6.1 | 0.00 | 0.00 | 0.00 | 79 | 1018.5 |
| 20260510011558 | 51 | 145 | 0.9 | 7.8 | 0.00 | 0.00 | 0.00 | 79 | 1018.3 |
| 20260510011058 | 52 | 0 | 1.7 | 7.8 | 0.00 | 0.00 | 0.00 | 79 | 1018.2 |
| 20260510010558 | 52 | 59 | 1.7 | 8.7 | 0.00 | 0.00 | 0.00 | 78 | 1018.2 |
| 20260510010058 | 52 | 74 | 2.6 | 12.2 | 0.00 | 0.00 | 0.00 | 78 | 1018.1 |
| 20260510005558 | 52 | 61 | 1.7 | 12.2 | 0.00 | 0.00 | 0.00 | 78 | 1018.0 |
| 20260510005100 | 52 | 88 | 3.5 | 12.2 | 0.00 | 0.00 | 0.00 | 78 | 1018.0 |
| 20260510004559 | 52 | 54 | 3.5 | 9.6 | 0.00 | 0.00 | 0.00 | 77 | 1017.9 |
| 20260510004059 | 53 | 119 | 1.7 | 11.3 | 0.00 | 0.00 | 0.00 | 77 | 1018.1 |
| 20260510003559 | 53 | 81 | 3.5 | 11.3 | 0.00 | 0.00 | 0.00 | 77 | 1018.1 |
| 20260510003107 | 53 | 53 | 2.6 | 11.3 | 0.00 | 0.00 | 0.00 | 77 | 1018.2 |
| 20260510002601 | 53 | 112 | 2.6 | 7.0 | 0.00 | 0.00 | 0.00 | 77 | 1018.1 |
| 20260510002105 | 53 | 320 | 1.7 | 5.2 | 0.00 | 0.00 | 0.00 | 77 | 1018.1 |
| 20260510001559 | 53 | 287 | 1.7 | 6.1 | 0.00 | 0.00 | 0.00 | 78 | 1018.1 |
| 20260510001059 | 53 | 0 | 1.7 | 6.1 | 0.00 | 0.00 | 0.00 | 78 | 1018.0 |
| 20260510000559 | 53 | 230 | 0.9 | 7.8 | 0.00 | 0.00 | 0.00 | 78 | 1018.1 |
| 20260510000126 | 54 | 92 | 1.7 | 7.8 | 0.00 | 0.00 | 0.00 | 77 | 1017.9 |
| 20260509235558 | 54 | 96 | 2.6 | 7.8 | 0.00 | 0.00 | 0.00 | 77 | 1017.9 |
| 20260509235058 | 54 | 319 | 3.5 | 8.7 | 0.00 | 0.00 | 0.00 | 77 | 1017.9 |
| 20260509234556 | 54 | 294 | 1.7 | 9.6 | 0.00 | 0.00 | 0.00 | 76 | 1018.0 |
| 20260509234058 | 54 | 94 | 2.6 | 9.6 | 0.00 | 0.00 | 0.00 | 76 | 1017.9 |
| 20260509233558 | 55 | 83 | 2.6 | 15.6 | 0.00 | 0.00 | 0.00 | 76 | 1017.9 |
| 20260509233058 | 55 | 93 | 5.2 | 15.6 | 0.00 | 0.00 | 0.00 | 76 | 1017.8 |
| 20260509232559 | 55 | 109 | 4.3 | 15.6 | 0.00 | 0.00 | 0.00 | 76 | 1017.8 |
| 20260509232059 | 55 | 19 | 6.1 | 14.8 | 0.00 | 0.00 | 0.00 | 76 | 1017.7 |
| 20260509231610 | 55 | 59 | 1.7 | 11.3 | 0.00 | 0.00 | 0.00 | 76 | 1017.7 |
| 20260509231058 | 55 | 24 | 5.2 | 11.3 | 0.00 | 0.00 | 0.00 | 76 | 1018.0 |
| 20260509230558 | 55 | 59 | 5.2 | 9.6 | 0.00 | 0.00 | 0.00 | 76 | 1018.0 |
| 20260509230108 | 55 | 84 | 4.3 | 9.6 | 0.00 | 0.00 | 0.00 | 76 | 1017.8 |
| 20260509225600 | 55 | 337 | 2.6 | 10.4 | 0.00 | 0.00 | 0.00 | 76 | 1017.5 |
| 20260509225110 | 56 | 136 | 4.3 | 10.4 | 0.00 | 0.00 | 0.00 | 76 | 1017.4 |
| 20260509224556 | 56 | 122 | 3.5 | 10.4 | 0.00 | 0.00 | 0.00 | 76 | 1017.4 |
| 20260509224058 | 56 | 288 | 2.6 | 8.7 | 0.00 | 0.00 | 0.00 | 76 | 1017.4 |
| 20260509223558 | 56 | 352 | 0.9 | 7.8 | 0.00 | 0.00 | 0.00 | 76 | 1017.5 |
| 20260509223110 | 56 | 46 | 1.7 | 10.4 | 0.00 | 0.00 | 0.00 | 75 | 1017.5 |
| 20260509222558 | 56 | 89 | 1.7 | 10.4 | 0.00 | 0.00 | 0.00 | 75 | 1017.5 |
| 20260509222058 | 56 | 40 | 2.6 | 10.4 | 0.00 | 0.00 | 0.00 | 76 | 1017.5 |
| 20260509221626 | 56 | 161 | 1.7 | 6.1 | 0.00 | 0.00 | 0.00 | 76 | 1017.5 |
| 20260509221059 | 57 | 83 | 1.7 | 5.2 | 0.00 | 0.00 | 0.00 | 76 | 1017.5 |
| 20260509220558 | 57 | 154 | 0.9 | 9.6 | 0.00 | 0.00 | 0.00 | 76 | 1017.4 |
| 20260509220057 | 57 | 37 | 1.7 | 9.6 | 0.00 | 0.00 | 0.00 | 76 | 1017.4 |
| 20260509215559 | 57 | 360 | 2.6 | 9.6 | 0.00 | 0.00 | 0.00 | 76 | 1017.5 |
| 20260509215103 | 57 | 350 | 2.6 | 9.6 | 0.00 | 0.00 | 0.00 | 76 | 1017.6 |
| 20260509214604 | 57 | 275 | 3.5 | 10.4 | 0.00 | 0.00 | 0.00 | 75 | 1017.5 |
| 20260509214059 | 57 | 325 | 5.2 | 10.4 | 0.00 | 0.00 | 0.00 | 75 | 1017.4 |
| 20260509213558 | 57 | 317 | 5.2 | 10.4 | 0.00 | 0.00 | 0.00 | 75 | 1017.4 |
| 20260509213057 | 57 | 333 | 4.3 | 9.6 | 0.00 | 0.00 | 0.00 | 75 | 1017.5 |
| 20260509212559 | 57 | 256 | 3.5 | 10.4 | 0.00 | 0.00 | 0.00 | 75 | 1017.4 |
| 20260509212058 | 57 | 296 | 4.3 | 10.4 | 0.00 | 0.00 | 0.00 | 74 | 1017.5 |
| 20260509211605 | 57 | 319 | 5.2 | 11.3 | 0.00 | 0.00 | 0.00 | 74 | 1017.5 |
| 20260509211058 | 58 | 352 | 5.2 | 11.3 | 0.00 | 0.00 | 0.00 | 74 | 1017.3 |
| 20260509210558 | 58 | 352 | 6.1 | 10.4 | 0.00 | 0.00 | 0.00 | 74 | 1017.3 |
| 20260509210059 | 58 | 351 | 4.3 | 9.6 | 0.00 | 0.00 | 0.00 | 74 | 1017.2 |
| 20260509205558 | 58 | 284 | 4.3 | 10.4 | 0.00 | 0.00 | 0.00 | 73 | 1017.1 |
| 20260509205058 | 58 | 313 | 5.2 | 11.3 | 0.00 | 0.00 | 0.00 | 73 | 1017.1 |
| 20260509204602 | 59 | 316 | 6.1 | 11.3 | 0.00 | 0.00 | 0.00 | 72 | 1017.2 |
| 20260509204058 | 59 | 319 | 6.1 | 10.4 | 0.00 | 0.00 | 0.00 | 71 | 1017.1 |
| 20260509203601 | 59 | 338 | 4.3 | 14.8 | 0.00 | 0.00 | 0.00 | 71 | 1016.9 |
| 20260509203058 | 60 | 10 | 6.1 | 14.8 | 0.00 | 0.00 | 0.00 | 70 | 1016.9 |
| 20260509202559 | 60 | 323 | 5.2 | 14.8 | 0.00 | 0.00 | 0.00 | 70 | 1017.0 |
| 20260509202101 | 60 | 344 | 7.0 | 14.8 | 0.00 | 0.00 | 0.00 | 69 | 1016.9 |
| 20260509201558 | 60 | 347 | 6.1 | 14.8 | 0.00 | 0.00 | 0.00 | 69 | 1017.0 |
| 20260509201102 | 60 | 350 | 7.8 | 13.9 | 0.00 | 0.00 | 0.00 | 68 | 1016.8 |
| 20260509200559 | 61 | 352 | 7.0 | 12.2 | 0.00 | 0.00 | 0.00 | 68 | 1016.9 |
| 20260509200109 | 61 | 349 | 5.2 | 12.2 | 0.00 | 0.00 | 0.00 | 67 | 1016.8 |
| 20260509195600 | 61 | 347 | 7.0 | 11.3 | 0.00 | 0.00 | 0.00 | 66 | 1016.7 |
| 20260509195101 | 61 | 5 | 6.1 | 10.4 | 0.00 | 0.00 | 0.00 | 62 | 1016.7 |
| 20260509194559 | 60 | 321 | 1.7 | 3.5 | 0.00 | 0.00 | 0.00 | 59 | 1016.7 |
| 20260509194058 | 61 | 0 | 0.9 | 3.5 | 0.00 | 0.00 | 0.00 | 59 | 1016.6 |
| 20260509193558 | 61 | 256 | 0.9 | 3.5 | 0.00 | 0.00 | 0.00 | 58 | 1016.6 |
| 20260509193104 | 61 | 278 | 0.9 | 3.5 | 0.00 | 0.00 | 0.00 | 57 | 1016.5 |
| 20260509192558 | 62 | 232 | 0.0 | 5.2 | 0.00 | 0.00 | 0.00 | 58 | 1016.6 |
| 20260509192102 | 62 | 232 | 0.9 | 5.2 | 0.00 | 0.00 | 0.00 | 57 | 1016.5 |
| 20260509191605 | 63 | 350 | 2.6 | 5.2 | 0.00 | 0.00 | 0.00 | 55 | 1016.5 |
| 20260509191058 | 63 | 300 | 2.6 | 5.2 | 0.00 | 0.00 | 0.00 | 55 | 1016.5 |
| 20260509190557 | 63 | 320 | 2.6 | 5.2 | 0.00 | 0.00 | 0.00 | 54 | 1016.6 |
| 20260509190100 | 64 | 55 | 2.6 | 6.1 | 0.00 | 0.00 | 0.00 | 53 | 1016.4 |
| 20260509185559 | 64 | 339 | 2.6 | 7.0 | 0.00 | 0.00 | 0.00 | 53 | 1016.5 |
| 20260509185059 | 65 | 315 | 2.6 | 7.0 | 0.00 | 0.00 | 0.00 | 52 | 1016.5 |
| 20260509184610 | 66 | 328 | 1.7 | 6.1 | 0.00 | 0.00 | 0.00 | 52 | 1016.3 |
| 20260509184058 | 66 | 333 | 1.7 | 8.7 | 0.00 | 0.00 | 0.00 | 51 | 1016.4 |
| 20260509183558 | 66 | 315 | 1.7 | 8.7 | 0.00 | 0.00 | 0.00 | 50 | 1016.4 |
| 20260509183108 | 66 | 332 | 4.3 | 8.7 | 0.00 | 0.00 | 0.00 | 49 | 1016.2 |
| 20260509182559 | 67 | 338 | 2.6 | 9.6 | 0.00 | 0.00 | 0.00 | 49 | 1016.2 |
| 20260509182058 | 68 | 317 | 2.6 | 10.4 | 0.00 | 0.00 | 0.00 | 50 | 1016.2 |
| 20260509181601 | 68 | 311 | 4.3 | 10.4 | 0.00 | 0.00 | 0.00 | 49 | 1016.2 |
| 20260509181059 | 68 | 338 | 4.3 | 10.4 | 0.00 | 0.00 | 0.00 | 49 | 1016.1 |
| 20260509180559 | 69 | 338 | 3.5 | 8.7 | 0.00 | 0.00 | 0.00 | 48 | 1016.0 |
| 20260509180109 | 69 | 348 | 3.5 | 8.7 | 0.00 | 0.00 | 0.00 | 50 | 1016.0 |
| 20260509175558 | 68 | 352 | 3.5 | 10.4 | 0.00 | 0.00 | 0.00 | 49 | 1015.9 |
| 20260509175058 | 69 | 32 | 3.5 | 11.3 | 0.00 | 0.00 | 0.00 | 49 | 1015.9 |
| 20260509174602 | 69 | 352 | 4.3 | 11.3 | 0.00 | 0.00 | 0.00 | 48 | 1016.0 |
| 20260509174058 | 69 | 22 | 4.3 | 10.4 | 0.00 | 0.00 | 0.00 | 50 | 1015.8 |
| 20260509173557 | 69 | 328 | 5.2 | 10.4 | 0.00 | 0.00 | 0.00 | 49 | 1015.7 |
| 20260509173104 | 69 | 315 | 4.3 | 9.6 | 0.00 | 0.00 | 0.00 | 49 | 1015.8 |
| 20260509172559 | 69 | 328 | 2.6 | 8.7 | 0.00 | 0.00 | 0.00 | 48 | 1015.9 |
| 20260509172101 | 69 | 350 | 1.7 | 7.0 | 0.00 | 0.00 | 0.00 | 48 | 1015.8 |
| 20260509171558 | 69 | 5 | 1.7 | 4.3 | 0.00 | 0.00 | 0.00 | 45 | 1015.9 |
| 20260509171058 | 69 | 74 | 1.7 | 7.8 | 0.00 | 0.00 | 0.00 | 45 | 1016.0 |
| 20260509170559 | 70 | 360 | 1.7 | 9.6 | 0.00 | 0.00 | 0.00 | 48 | 1015.9 |
| 20260509170059 | 70 | 335 | 3.5 | 10.4 | 0.00 | 0.00 | 0.00 | 47 | 1016.0 |
| 20260509165559 | 71 | 340 | 5.2 | 11.3 | 0.00 | 0.00 | 0.00 | 48 | 1015.9 |
| 20260509165058 | 71 | 323 | 5.2 | 11.3 | 0.00 | 0.00 | 0.00 | 48 | 1016.0 |
| 20260509164559 | 71 | 360 | 3.5 | 8.7 | 0.00 | 0.00 | 0.00 | 51 | 1015.9 |
| 20260509164058 | 71 | 71 | 2.6 | 10.4 | 0.00 | 0.00 | 0.00 | 48 | 1016.0 |
| 20260509163557 | 71 | 55 | 3.5 | 10.4 | 0.00 | 0.00 | 0.00 | 47 | 1016.0 |
| 20260509163102 | 71 | 10 | 1.7 | 9.6 | 0.00 | 0.00 | 0.00 | 49 | 1016.1 |
| 20260509162558 | 71 | 32 | 3.5 | 9.6 | 0.00 | 0.00 | 0.00 | 48 | 1016.1 |
| 20260509162058 | 71 | 360 | 4.3 | 9.6 | 0.00 | 0.00 | 0.00 | 46 | 1016.2 |
| 20260509161604 | 71 | 85 | 1.7 | 12.2 | 0.00 | 0.00 | 0.00 | 48 | 1016.2 |
| 20260509161059 | 71 | 312 | 7.0 | 12.2 | 0.00 | 0.00 | 0.00 | 48 | 1016.2 |
| 20260509160559 | 71 | 328 | 6.1 | 12.2 | 0.00 | 0.00 | 0.00 | 47 | 1016.3 |
| 20260509160101 | 71 | 333 | 6.1 | 12.2 | 0.00 | 0.00 | 0.00 | 47 | 1016.3 |
| 20260509155559 | 71 | 340 | 1.7 | 12.2 | 0.00 | 0.00 | 0.00 | 52 | 1016.2 |
| 20260509155058 | 71 | 5 | 5.2 | 12.2 | 0.00 | 0.00 | 0.00 | 47 | 1016.3 |
| 20260509154601 | 71 | 31 | 3.5 | 10.4 | 0.00 | 0.00 | 0.00 | 50 | 1016.3 |
| 20260509154059 | 71 | 315 | 5.2 | 11.3 | 0.00 | 0.00 | 0.00 | 49 | 1016.3 |
| 20260509153558 | 71 | 5 | 3.5 | 11.3 | 0.00 | 0.00 | 0.00 | 49 | 1016.4 |
| 20260509153100 | 71 | 360 | 3.5 | 9.6 | 0.00 | 0.00 | 0.00 | 49 | 1016.4 |
| 20260509152558 | 71 | 315 | 2.6 | 8.7 | 0.00 | 0.00 | 0.00 | 51 | 1016.4 |
| 20260509152058 | 70 | 336 | 5.2 | 8.7 | 0.00 | 0.00 | 0.00 | 50 | 1016.4 |
| 20260509151600 | 70 | 338 | 3.5 | 7.8 | 0.00 | 0.00 | 0.00 | 53 | 1016.5 |
| 20260509151100 | 69 | 307 | 4.3 | 10.4 | 0.00 | 0.00 | 0.00 | 54 | 1016.5 |
| 20260509150558 | 68 | 304 | 4.3 | 10.4 | 0.00 | 0.00 | 0.00 | 52 | 1016.6 |
| 20260509150103 | 67 | 59 | 5.2 | 8.7 | 0.00 | 0.00 | 0.00 | 48 | 1016.6 |
| 20260509145558 | 67 | 65 | 3.5 | 8.7 | 0.00 | 0.00 | 0.00 | 49 | 1016.6 |
| 20260509145058 | 68 | 108 | 3.5 | 7.8 | 0.00 | 0.00 | 0.00 | 51 | 1016.6 |
| 20260509144600 | 68 | 64 | 3.5 | 8.7 | 0.00 | 0.00 | 0.00 | 48 | 1016.7 |
| 20260509144058 | 68 | 51 | 1.7 | 8.7 | 0.00 | 0.00 | 0.00 | 47 | 1016.7 |
| 20260509143558 | 69 | 44 | 4.3 | 9.6 | 0.00 | 0.00 | 0.00 | 46 | 1016.7 |
| 20260509143102 | 70 | 59 | 5.2 | 9.6 | 0.00 | 0.00 | 0.00 | 50 | 1016.7 |
| 20260509142558 | 70 | 22 | 4.3 | 9.6 | 0.00 | 0.00 | 0.00 | 48 | 1016.6 |
| 20260509142058 | 70 | 48 | 2.6 | 9.6 | 0.00 | 0.00 | 0.00 | 46 | 1016.6 |
| 20260509141603 | 69 | 88 | 4.3 | 9.6 | 0.00 | 0.00 | 0.00 | 49 | 1016.6 |
| 20260509141105 | 69 | 52 | 3.5 | 9.6 | 0.00 | 0.00 | 0.00 | 51 | 1016.5 |
| 20260509140602 | 68 | 88 | 5.2 | 9.6 | 0.00 | 0.00 | 0.00 | 48 | 1016.5 |
| 20260509140106 | 68 | 80 | 4.3 | 7.8 | 0.00 | 0.00 | 0.00 | 50 | 1016.5 |
| 20260509135558 | 68 | 88 | 2.6 | 7.8 | 0.00 | 0.00 | 0.00 | 48 | 1016.5 |
| 20260509135058 | 68 | 112 | 2.6 | 7.8 | 0.00 | 0.00 | 0.00 | 50 | 1016.6 |
| 20260509134559 | 68 | 90 | 1.7 | 7.8 | 0.00 | 0.00 | 0.00 | 52 | 1016.6 |
| 20260509134057 | 68 | 57 | 4.3 | 7.8 | 0.00 | 0.00 | 0.00 | 48 | 1016.6 |
| 20260509133559 | 68 | 63 | 2.6 | 8.7 | 0.00 | 0.00 | 0.00 | 49 | 1016.6 |
| 20260509133057 | 68 | 78 | 3.5 | 8.7 | 0.00 | 0.00 | 0.00 | 49 | 1016.6 |
| 20260509132559 | 68 | 65 | 4.3 | 8.7 | 0.00 | 0.00 | 0.00 | 51 | 1016.6 |
| 20260509132058 | 68 | 69 | 3.5 | 9.6 | 0.00 | 0.00 | 0.00 | 49 | 1016.6 |
| 20260509131559 | 68 | 77 | 5.2 | 9.6 | 0.00 | 0.00 | 0.00 | 49 | 1016.6 |
| 20260509131058 | 68 | 94 | 2.6 | 7.0 | 0.00 | 0.00 | 0.00 | 50 | 1016.6 |
| 20260509130558 | 68 | 74 | 2.6 | 7.8 | 0.00 | 0.00 | 0.00 | 50 | 1016.7 |
| 20260509130100 | 68 | 40 | 3.5 | 7.8 | 0.00 | 0.00 | 0.00 | 50 | 1016.8 |
| 20260509125559 | 68 | 84 | 3.5 | 7.8 | 0.00 | 0.00 | 0.00 | 50 | 1016.9 |
| 20260509125058 | 68 | 113 | 3.5 | 7.0 | 0.00 | 0.00 | 0.00 | 55 | 1016.8 |
| 20260509124605 | 68 | 32 | 2.6 | 7.8 | 0.00 | 0.00 | 0.00 | 52 | 1016.9 |
| 20260509124058 | 68 | 78 | 3.5 | 7.8 | 0.00 | 0.00 | 0.00 | 53 | 1017.0 |
| 20260509123602 | 68 | 59 | 2.6 | 7.8 | 0.00 | 0.00 | 0.00 | 53 | 1017.1 |
| 20260509123136 | 68 | 32 | 1.7 | 7.8 | 0.00 | 0.00 | 0.00 | 52 | 1017.0 |
| 20260509122557 | 68 | 41 | 3.5 | 7.8 | 0.00 | 0.00 | 0.00 | 53 | 1017.1 |
| 20260509122058 | 68 | 49 | 2.6 | 7.0 | 0.00 | 0.00 | 0.00 | 49 | 1017.1 |
| 20260509121602 | 68 | 91 | 2.6 | 7.8 | 0.00 | 0.00 | 0.00 | 50 | 1017.1 |
| 20260509121058 | 68 | 83 | 4.3 | 7.8 | 0.00 | 0.00 | 0.00 | 51 | 1017.2 |
| 20260509120559 | 68 | 45 | 2.6 | 8.7 | 0.00 | 0.00 | 0.00 | 53 | 1017.1 |
| 20260509120101 | 68 | 19 | 3.5 | 11.3 | 0.00 | 0.00 | 0.00 | 53 | 1017.2 |
| 20260509115558 | 68 | 46 | 2.6 | 11.3 | 0.00 | 0.00 | 0.00 | 56 | 1017.2 |
| 20260509115058 | 68 | 69 | 6.1 | 11.3 | 0.00 | 0.00 | 0.00 | 52 | 1017.3 |
| 20260509114601 | 68 | 67 | 3.5 | 8.7 | 0.00 | 0.00 | 0.00 | 51 | 1017.3 |
| 20260509114058 | 68 | 69 | 4.3 | 8.7 | 0.00 | 0.00 | 0.00 | 51 | 1017.3 |
| 20260509113601 | 68 | 61 | 3.5 | 7.8 | 0.00 | 0.00 | 0.00 | 56 | 1017.5 |
| 20260509113106 | 68 | 344 | 2.6 | 7.8 | 0.00 | 0.00 | 0.00 | 57 | 1017.4 |
| 20260509112558 | 68 | 67 | 2.6 | 9.6 | 0.00 | 0.00 | 0.00 | 53 | 1017.5 |
| 20260509112058 | 68 | 159 | 2.6 | 9.6 | 0.00 | 0.00 | 0.00 | 54 | 1017.4 |
| 20260509111601 | 68 | 47 | 3.5 | 9.6 | 0.00 | 0.00 | 0.00 | 55 | 1017.6 |
| 20260509111058 | 68 | 142 | 3.5 | 9.6 | 0.00 | 0.00 | 0.00 | 59 | 1017.6 |
| 20260509110557 | 68 | 119 | 3.5 | 9.6 | 0.00 | 0.00 | 0.00 | 51 | 1017.7 |
| 20260509110100 | 67 | 140 | 2.6 | 7.8 | 0.00 | 0.00 | 0.00 | 54 | 1017.7 |
| 20260509105559 | 67 | 96 | 2.6 | 7.8 | 0.00 | 0.00 | 0.00 | 56 | 1017.7 |
| 20260509105059 | 67 | 104 | 2.6 | 7.8 | 0.00 | 0.00 | 0.00 | 52 | 1017.8 |
| 20260509104557 | 67 | 52 | 3.5 | 7.8 | 0.00 | 0.00 | 0.00 | 53 | 1017.7 |
| 20260509104059 | 67 | 76 | 2.6 | 7.8 | 0.00 | 0.00 | 0.00 | 55 | 1017.7 |
| 20260509103558 | 68 | 44 | 0.9 | 7.0 | 0.00 | 0.00 | 0.00 | 56 | 1017.8 |
| 20260509103103 | 67 | 142 | 2.6 | 7.8 | 0.00 | 0.00 | 0.00 | 55 | 1017.7 |
| 20260509102558 | 67 | 49 | 3.5 | 10.4 | 0.00 | 0.00 | 0.00 | 58 | 1017.8 |
| 20260509102059 | 66 | 94 | 3.5 | 10.4 | 0.00 | 0.00 | 0.00 | 56 | 1017.8 |
| 20260509101603 | 66 | 50 | 5.2 | 10.4 | 0.00 | 0.00 | 0.00 | 55 | 1017.7 |
| 20260509101059 | 66 | 84 | 2.6 | 8.7 | 0.00 | 0.00 | 0.00 | 56 | 1017.9 |
| 20260509100559 | 67 | 113 | 5.2 | 8.7 | 0.00 | 0.00 | 0.00 | 56 | 1017.8 |
| 20260509100101 | 67 | 116 | 1.7 | 5.2 | 0.00 | 0.00 | 0.00 | 59 | 1017.8 |